Date String (YYYY-MM-DD hh:mm:ss) UTC,Instrument flags,Ambient pressure (hPa),Sample flow (lpm),Bypass flow (lpm),Sample temperature (°C),Ambient temperature (°C),ASC tube jacket temperature (°C),LED temperature (°C),Box temperature (°C),Sample RH (%),Span deviation,Mass concentration (μg/m³),Mass concentration (μg/m³),Mass concentration (μg/m³)
DateTimeUTC,F1_M11,P_M11,Q1_M11,Q2_M11,T1_M11,T2_M11,T3_M11,T4_M11,T5_M11,U1_M11,ZSPAN_M11,X0_M11,X2_M11,X1_M11
2021-11-23 09:00:00,,0823.9,5.01,0.00,25.5,24.8,00.0,34.6,27.3,06.5,0000.0,0003.87,0001.70,0001.21
2021-11-23 09:01:00,,0823.8,4.99,0.00,25.5,24.7,00.0,34.6,27.3,06.5,0000.0,0003.99,0001.74,0001.22
2021-11-23 09:02:00,,0823.8,5.00,0.00,25.5,24.8,00.0,34.6,27.3,06.5,0000.0,0004.03,0001.74,0001.20
2021-11-23 09:03:00,,0823.8,5.01,0.00,25.5,24.7,00.0,34.6,27.3,06.5,0000.0,0004.08,0001.72,0001.16
2021-11-23 09:04:00,,0823.8,5.00,0.00,25.5,24.7,00.0,34.6,27.2,06.6,0000.0,0003.30,0001.72,0001.14
2021-11-23 09:05:00,,0823.9,5.00,0.00,25.5,24.7,00.0,34.6,27.2,06.6,0000.0,0003.89,0001.75,0001.14
2021-11-23 09:06:00,,0823.9,5.00,0.00,25.4,24.6,00.0,34.6,27.1,06.6,0000.0,0004.92,0001.75,0001.14
2021-11-23 09:07:00,,0823.8,5.01,0.00,25.4,24.6,00.0,34.5,27.1,06.6,0000.0,0004.93,0001.72,0001.13
2021-11-23 09:08:00,,0823.8,5.00,0.00,25.3,24.5,00.0,34.5,27.0,06.5,0000.0,0005.00,0001.66,0001.11
2021-11-23 09:09:00,,0823.7,5.01,0.00,25.3,24.5,00.0,34.5,27.0,06.4,0000.0,0004.94,0001.63,0001.07
2021-11-23 09:10:00,,0823.7,5.00,0.00,25.3,24.5,00.0,34.5,27.0,06.2,0000.0,0004.78,0001.56,0001.04
2021-11-23 09:11:00,,0823.6,5.00,0.00,25.4,24.6,00.0,34.5,27.1,06.2,0000.0,0004.73,0001.52,0001.00
2021-11-23 09:12:00,,0823.7,5.00,0.00,25.4,24.6,00.0,34.5,27.1,06.2,0000.0,0004.50,0001.44,0000.96
2021-11-23 09:13:00,,0823.7,4.99,0.00,25.4,24.6,00.0,34.5,27.2,06.2,0000.0,0004.28,0001.37,0000.93
2021-11-23 09:14:00,,0823.7,5.01,0.00,25.4,24.6,00.0,34.5,27.2,06.2,0000.0,0004.01,0001.29,0000.88
2021-11-23 09:15:00,,0823.7,4.99,0.00,25.4,24.6,00.0,34.5,27.2,06.1,0000.0,0003.88,0001.22,0000.83
2021-11-23 09:16:00,,0823.7,5.01,0.00,25.4,24.7,00.0,34.5,27.2,06.1,0000.0,0002.98,0001.06,0000.76
2021-11-23 09:17:00,,0823.6,4.99,0.00,25.5,24.7,00.0,34.5,27.2,06.1,0000.0,0001.72,0000.94,0000.69
2021-11-23 09:18:00,,0823.6,5.01,0.00,25.5,24.7,00.0,34.5,27.2,06.1,0000.0,0001.46,0000.86,0000.63
2021-11-23 09:19:00,,0823.6,4.99,0.00,25.5,24.7,00.0,34.5,27.3,06.1,0000.0,0001.23,0000.83,0000.60
2021-11-23 09:20:00,,0823.6,5.01,0.00,25.5,24.7,00.0,34.5,27.3,06.0,0000.0,0001.08,0000.75,0000.58
2021-11-23 09:21:00,,0823.7,5.01,0.00,25.5,24.7,00.0,34.5,27.3,06.0,0000.0,0001.09,0000.75,0000.56
2021-11-23 09:22:00,,0823.7,4.98,0.00,25.5,24.7,00.0,34.5,27.3,05.9,0000.0,0001.13,0000.75,0000.55
2021-11-23 09:23:00,,0823.6,5.00,0.00,25.5,24.7,00.0,34.5,27.3,05.9,0000.0,0001.17,0000.75,0000.54
2021-11-23 09:24:00,,0823.7,5.00,0.00,25.5,24.7,00.0,34.5,27.2,05.9,0000.0,0001.26,0000.74,0000.53
2021-11-23 09:25:00,,0823.7,5.01,0.00,25.5,24.6,00.0,34.5,27.1,05.9,0000.0,0002.27,0000.77,0000.52
2021-11-23 09:26:00,,0823.7,4.99,0.00,25.5,24.6,00.0,34.5,27.2,06.1,0000.0,0002.40,0000.79,0000.52
2021-11-23 09:27:00,,0823.6,5.02,0.00,25.5,24.6,00.0,34.5,27.2,06.1,0000.0,0002.66,0000.87,0000.53
2021-11-23 09:28:00,,0823.5,5.00,0.00,25.5,24.6,00.0,34.5,27.2,06.1,0000.0,0002.80,0000.89,0000.54
2021-11-23 09:29:00,,0823.4,5.00,0.00,25.5,24.6,00.0,34.5,27.2,06.0,0000.0,0002.84,0000.89,0000.53
2021-11-23 09:30:00,,0823.4,5.00,0.00,25.5,24.6,00.0,34.5,27.2,05.9,0000.0,0002.74,0000.83,0000.51
2021-11-23 09:31:00,,0823.4,5.01,0.00,25.5,24.6,00.0,34.5,27.2,05.9,0000.0,0002.82,0000.87,0000.51
2021-11-23 09:32:00,,0823.4,5.00,0.00,25.5,24.6,00.0,34.5,27.3,05.9,0000.0,0002.76,0000.84,0000.51
2021-11-23 09:33:00,,0823.4,4.99,0.00,25.5,24.6,00.0,34.5,27.3,05.9,0000.0,0002.72,0000.84,0000.51
2021-11-23 09:34:00,,0823.3,5.01,0.00,25.6,24.7,00.0,34.5,27.3,05.8,0000.0,0002.71,0000.83,0000.50
2021-11-23 09:35:00,,0823.3,4.98,0.00,25.6,24.7,00.0,34.6,27.4,05.8,0000.0,0003.24,0000.87,0000.50
2021-11-23 09:36:00,,0823.3,5.00,0.00,25.6,24.7,00.0,34.6,27.3,05.9,0000.0,0002.99,0000.86,0000.50
2021-11-23 09:37:00,,0823.3,4.99,0.00,25.6,24.7,00.0,34.6,27.4,05.9,0000.0,0003.10,0000.83,0000.50
2021-11-23 09:38:00,,0823.3,5.01,0.00,25.6,24.7,00.0,34.6,27.4,06.0,0000.0,0004.00,0000.78,0000.49
2021-11-23 09:39:00,,0823.3,5.00,0.00,25.6,24.8,00.0,34.6,27.4,06.1,0000.0,0004.79,0000.80,0000.49
2021-11-23 09:40:00,,0823.4,5.00,0.00,25.6,24.7,00.0,34.6,27.3,06.2,0000.0,0005.02,0000.83,0000.49
2021-11-23 09:41:00,,0823.3,5.01,0.00,25.6,24.7,00.0,34.6,27.4,06.0,0000.0,0005.09,0000.85,0000.51
2021-11-23 09:42:00,,0823.4,5.00,0.00,25.6,24.8,00.0,34.6,27.4,06.0,0000.0,0006.03,0000.81,0000.50
2021-11-23 09:43:00,,0823.3,5.00,0.00,25.6,24.8,00.0,34.6,27.4,05.9,0000.0,0006.25,0000.80,0000.49
2021-11-23 09:44:00,,0823.4,5.00,0.00,25.6,24.8,00.0,34.6,27.4,05.9,0000.0,0006.19,0000.77,0000.48
2021-11-23 09:45:00,,0823.3,5.01,0.00,25.6,24.8,00.0,34.6,27.4,06.0,0000.0,0006.21,0000.76,0000.48
2021-11-23 09:46:00,,0823.4,5.00,0.00,25.6,24.8,00.0,34.6,27.4,06.0,0000.0,0005.74,0000.74,0000.49
2021-11-23 09:47:00,,0823.5,4.99,0.00,25.6,24.8,00.0,34.6,27.4,06.0,0000.0,0004.86,0000.72,0000.49
2021-11-23 09:48:00,,0823.4,5.00,0.00,25.6,24.8,00.0,34.6,27.4,06.0,0000.0,0004.64,0000.71,0000.49
2021-11-23 09:49:00,,0823.3,4.99,0.00,25.6,24.8,00.0,34.6,27.4,06.0,0000.0,0003.70,0000.71,0000.48
2021-11-23 09:50:00,,0823.4,4.99,0.00,25.6,24.8,00.0,34.6,27.4,06.0,0000.0,0002.82,0000.69,0000.46
2021-11-23 09:51:00,,0823.3,5.00,0.00,25.6,24.8,00.0,34.6,27.4,06.0,0000.0,0002.53,0000.67,0000.46
2021-11-23 09:52:00,,0823.3,5.00,0.00,25.6,24.8,00.0,34.6,27.4,06.0,0000.0,0002.48,0000.66,0000.45
2021-11-23 09:53:00,,0823.3,5.01,0.00,25.6,24.8,00.0,34.6,27.4,06.1,0000.0,0001.32,0000.65,0000.45
2021-11-23 09:54:00,,0823.3,4.99,0.00,25.6,24.8,00.0,34.6,27.4,06.1,0000.0,0001.22,0000.66,0000.46
2021-11-23 09:55:00,,0823.2,5.01,0.00,25.6,24.8,00.0,34.6,27.4,06.2,0000.0,0001.23,0000.67,0000.46
2021-11-23 09:56:00,,0823.3,5.00,0.00,25.7,24.8,00.0,34.6,27.5,06.2,0000.0,0001.17,0000.68,0000.46
2021-11-23 09:57:00,,0823.2,4.99,0.00,25.7,24.8,00.0,34.6,27.5,06.2,0000.0,0001.13,0000.65,0000.45
2021-11-23 09:58:00,,0823.1,5.01,0.00,25.7,24.9,00.0,34.6,27.5,06.3,0000.0,0001.15,0000.66,0000.46
2021-11-23 09:59:00,,0823.1,4.99,0.00,25.7,24.9,00.0,34.6,27.4,06.4,0000.0,0001.15,0000.69,0000.49
